Location: アルンシュタイン
(50.0000°N, 10.0000°E)
Time: 04:52:01
(UTC+02:00)

N. Korean satellite - Visible Passes

Search period start: 17 October 2021 00:00
Search period end: 27 October 2021 00:00
Orbit: 450 x 495 km, 97.3° (Epoch: 16 October)

Date Brightness Start Highest point End Pass type
(mag) Time Alt. Az. Time Alt. Az. Time Alt. Az.
17 Oct 8.6 06:10:03 10° NNE 06:13:24 32° E 06:16:42 10° SSE visible
18 Oct 9.8 05:42:42 10° NE 05:45:09 17° E 05:47:35 10° SE visible
19 Oct 6.6 06:46:54 10° NNE 06:50:36 87° ESE 06:54:15 10° SSW visible
19 Oct 10.3 19:01:02 10° WSW 19:02:23 12° W 19:03:44 10° WNW visible
20 Oct 8.1 06:18:59 10° NNE 06:22:29 41° E 06:25:57 10° S visible
21 Oct 9.4 05:51:26 10° NE 05:54:15 21° E 05:57:03 10° SE visible
22 Oct 10.2 05:25:06 10° ENE 05:25:54 11° E 05:26:41 10° E visible
22 Oct 6.5 06:55:55 10° N 06:59:35 73° WNW 07:03:13 10° SSW visible
23 Oct 7.5 06:27:52 10° NNE 06:31:29 52° E 06:35:02 10° S visible
24 Oct 9.0 06:00:09 10° NE 06:03:15 25° E 06:06:19 10° SSE visible
25 Oct 10.0 05:33:05 10° ENE 05:34:54 13° E 05:36:41 10° ESE visible
25 Oct 6.6 07:04:51 10° N 07:08:29 57° WNW 07:12:02 10° SSW visible
26 Oct 7.0 06:36:43 10° NNE 06:40:22 67° ESE 06:43:59 10° S visible
26 Oct 10.0 18:49:47 10° SW 18:51:59 15° W 18:54:12 10° NW visible
